{"data":{"norad_id":69650,"intl_designator":"2026-143B","name":"STARLINK-37646","alt_names":[],"object_type":"PAYLOAD","status":"ACTIVE","operator":null,"country":"US","launch_date":"2026-06-21","launch_site_code":"AFWTR","launch_vehicle":null,"mission":null,"orbit_class":"UNKNOWN","rcs_meters":null,"size_class":null,"mass_kg":null,"dimensions":null,"purposes":["comms"],"wikipedia_slug":null,"has_3d_model":false,"image_url":null,"decayed_at":null,"tle_current":{"epoch":"2026-09-20T01:20:20.981760Z","epoch_age_seconds":60044,"freshness":"FRESH","line1":"1 69650U 26143B   26263.05579840  .00018132  00000+0  56242-3 0  9995","line2":"2 69650  97.2846 306.2397 0001182 113.8169 246.3197 15.33455740 15145","mean_motion":15.3345574,"eccentricity":0.0001182,"inclination_deg":97.2846,"raan_deg":306.2397,"arg_perigee_deg":113.8169,"mean_anomaly_deg":246.3197,"bstar":0.00056242,"rev_number":1514,"period_min":93.905546957619,"perigee_km":464.70230076127,"apogee_km":466.32013920047,"semimajor_km":6843.6482199809,"source":"CELESTRAK","updated_at":"2026-09-20T09:00:44.246906Z"}}}